Hourly Data Report for October 29, 2013

All times are specified in Local Standard Time (LST). Add 1 hour to adjust for Daylight Saving Time where and when it is observed.

KAMLOOPS A
BRITISH COLUMBIA

50°42'09.000" N
120°26'55.000" W
345.30 m
1163781
71887
YKA

Download Data

Hourly Data (October 2013)
Hourly Data Report for October 29, 2013
Temp Definition
°C
Dew Point Temp Definition
°C
Rel Hum Definition
%
Wind Dir Definition
10's deg

Wind Spd Definition
km/h
Visibility Definition
km
Stn Press Definition
kPa
Hmdx Definition


Wind Chill Definition


Weather Definition


TIME
00:00 Legend Double Dagger 0.0 -4.8 70 8 5 64.4 97.95   -2 LegendNANA
01:00 Legend Double Dagger -2.2 -5.5 78 7 6 64.4 97.93   -5 Clear
02:00 Legend Double Dagger -2.1 -5.1 80 10 6 64.4 97.92   -4 LegendNANA
03:00 Legend Double Dagger -1.7 -5.0 78 11 6 64.4 97.88   -4 LegendNANA
04:00 Legend Double Dagger -3.7 -6.7 80 5 4 64.4 97.84   -5 Clear
05:00 Legend Double Dagger -3.3 -6.4 79 9 7 64.4 97.86   -6 LegendNANA
06:00 Legend Double Dagger -3.5 -6.1 82 3 2 64.4 97.85   -4 LegendNANA
07:00 Legend Double Dagger -4.4 -6.7 84 8 2 64.4 97.84   -5 Clear
08:00 Legend Double Dagger -2.3 -5.0 82 8 3 64.4 97.86   -3 LegendNANA
09:00 Legend Double Dagger 0.0 -3.9 75 11 6 64.4 97.82   -2 LegendNANA
10:00 Legend Double Dagger 1.4 -4.1 67 16 3 64.4 97.74     Clear
11:00 Legend Double Dagger 3.3 -4.2 58 17 2 64.4 97.70     LegendNANA
12:00 Legend Double Dagger 4.7 -4.3 52 17 5 64.4 97.58     LegendNANA
13:00 Legend Double Dagger 6.2 -4.3 47 11 7 64.4 97.46     Mainly Clear
14:00 Legend Double Dagger 7.1 -4.6 43 14 4 64.4 97.40     LegendNANA
15:00 Legend Double Dagger 7.6 -4.2 43 19 4 64.4 97.36     LegendNANA
16:00 Legend Double Dagger 6.6 -3.4 49 26 2 64.4 97.32     Mainly Clear
17:00 Legend Double Dagger 2.5 -3.6 64 29 7 64.4 97.33     LegendNANA
18:00 Legend Double Dagger 2.7 -3.7 63 27 2 64.4 97.37     LegendNANA
19:00 Legend Double Dagger 2.5 -3.2 66 4 1 64.4 97.42     Clear
20:00 Legend Double Dagger 1.5 -4.8 63 1 3 64.4 97.45     LegendNANA
21:00 Legend Double Dagger 0.3 -4.4 71 9 4 64.4 97.48     LegendNANA
22:00 Legend Double Dagger 0.4 -3.9 73 9 3 64.4 97.51     Clear
23:00 Legend Double Dagger -1.8 -5.0 79 5 4 64.4 97.49   -3 LegendNANA

Notes on Data Quality.

Legend

  • E = Estimated
  • M = Missing
  • NA = Not Available
  • ‡ = Partner data that is not subject to review by the National Climate Archives
Date modified: